Philip, SD

8:54 PM MDT on June 23, 2017 (GMT -0600)
Philip

Weather History for KPHP - May, 2013

Change the Weather History Date:

Monday, May 20, 2013

  Actual Average Record
Temperature  
Mean Temperature 54 °F 59 °F  
Max Temperature 59 °F 72 °F 98 °F (1992)
Min Temperature 49 °F 46 °F 28 °F (1968)
Degree Days  
Heating Degree Days 11 7  
Month to date heating degree days 212 206  
Since 1 July heating degree days 6962 7073  
Cooling Degree Days 0 1  
Month to date cooling degree days 13 15  
Year to date cooling degree days 13 18  
Growing Degree Days 4 (Base 50)    
Moisture  
Dew Point 51 °F    
Average Humidity 95    
Maximum Humidity 100    
Minimum Humidity 89    
Precipitation  
Precipitation 0.19 in 0.09 in 1.36 in (1957)
Month to date precipitation 1.67 1.95  
Year to date precipitation 4.85 5.84  
Sea Level Pressure  
Sea Level Pressure 29.59 in    
Wind  
Wind Speed 22 mph (NW)    
Max Wind Speed 32 mph    
Max Gust Speed 38 mph    
Visibility 9 miles    
Events Rain    
T = Trace of Precipitation, MM = Missing Value Source: NWS Daily Summary

Daily Weather History Graph

Daily Weather History Graph

Search for Another Location

Airport or City:

Trip Planner

Search our weather history database for the weather conditions in past years. The results will help you decide how hot, cold, wet, or windy it might be!

Date:

Astronomy

May. 20, 2013 Rise Set
Actual Time 5:14 AM MDT 8:11 PM MDT
Civil Twilight 4:40 AM MDT 8:45 PM MDT
Nautical Twilight 3:57 AM MDT 9:29 PM MDT
Astronomical Twilight 3:06 AM MDT 10:21 PM MDT
Moon 3:11 PM MDT (5/20) 2:21 AM MDT (5/20)
Length of Visible Light 16h 05m
Length of Day
14h 56m
Waxing Gibbous, 75% of the Moon is Illuminated
May 20
Waxing Gibbous
May 24
Full
May 31
Last Quarter
Jun 8
New
Jun 16
First Quarter

Hourly Weather History & Observations

Time (MDT) Temp. Dew Point Humidity Pressure Visibility Wind Dir Wind Speed Gust Speed Precip Events Conditions
12:30 AM 53.6 °F 51.8 °F 94% 29.57 in 10.0 mi West 18.4 mph 24.2 mph N/A   Overcast
12:47 AM 53.6 °F 51.8 °F 94% 29.57 in 10.0 mi WNW 19.6 mph 25.3 mph N/A   Overcast
12:55 AM 54.0 °F 51.1 °F 90% 29.54 in 10.0 mi WNW 17.3 mph 25.3 mph 0.00 in Rain Light Rain
1:55 AM 53.1 °F 51.1 °F 93% 29.53 in 7.0 mi WNW 19.6 mph 25.3 mph 0.01 in Rain Light Rain
2:28 AM 51.8 °F 50.0 °F 94% 29.55 in 10.0 mi WNW 18.4 mph 28.8 mph 0.00 in   Overcast
2:35 AM 51.8 °F 50.0 °F 94% 29.55 in 10.0 mi WNW 15.0 mph 23.0 mph 0.00 in   Overcast
2:47 AM 51.8 °F 51.8 °F 100% 29.55 in 9.0 mi WNW 17.3 mph - 0.01 in Rain Light Rain
2:55 AM 52.0 °F 50.0 °F 93% 29.52 in 6.0 mi WNW 19.6 mph 24.2 mph 0.01 in Rain Light Rain
3:26 AM 51.8 °F 50.0 °F 94% 29.54 in 10.0 mi WNW 16.1 mph - 0.00 in Rain Light Rain
3:55 AM 52.0 °F 48.9 °F 89% 29.51 in 10.0 mi WNW 19.6 mph - 0.00 in   Overcast
4:55 AM 52.0 °F 50.0 °F 93% 29.50 in 10.0 mi WNW 15.0 mph - N/A   Overcast
5:29 AM 51.8 °F 50.0 °F 94% 29.51 in 10.0 mi WNW 13.8 mph - N/A   Overcast
5:55 AM 52.0 °F 50.0 °F 93% 29.49 in 10.0 mi WNW 15.0 mph - N/A   Overcast
6:55 AM 53.1 °F 50.0 °F 89% 29.49 in 10.0 mi NW 20.7 mph 26.5 mph N/A   Overcast
7:27 AM 53.6 °F 50.0 °F 88% 29.51 in 10.0 mi NW 17.3 mph - N/A   Overcast
7:55 AM 54.0 °F 53.1 °F 97% 29.50 in 6.0 mi NNW 16.1 mph - N/A   Overcast
8:42 AM 59.0 °F 55.4 °F 88% 29.53 in 10.0 mi North 17.3 mph - 0.00 in   Overcast
8:55 AM 55.9 °F 53.1 °F 90% 29.52 in 4.0 mi North 20.7 mph 28.8 mph 0.00 in Rain Light Rain
9:24 AM 55.4 °F 53.6 °F 94% 29.55 in 4.0 mi NNW 18.4 mph 24.2 mph 0.00 in Rain Light Rain
9:55 AM 57.0 °F 53.1 °F 87% 29.54 in 10.0 mi NNW 16.1 mph 23.0 mph 0.01 in   Overcast
10:16 AM 55.4 °F 53.6 °F 94% 29.56 in 8.0 mi NNW 16.1 mph - 0.00 in Rain Light Rain
10:23 AM 55.4 °F 53.6 °F 94% 29.57 in 6.0 mi North 20.7 mph 27.6 mph 0.00 in Rain Light Rain
10:31 AM 55.4 °F 53.6 °F 94% 29.57 in 10.0 mi NNW 18.4 mph 27.6 mph 0.00 in Rain Light Rain
10:52 AM 55.4 °F 51.8 °F 88% 29.58 in 10.0 mi NNW 21.9 mph 26.5 mph 0.00 in   Overcast
10:55 AM 55.0 °F 52.0 °F 89% 29.56 in 10.0 mi NNW 18.4 mph 26.5 mph 0.00 in Rain Light Rain
11:53 AM 55.4 °F 51.8 °F 88% 29.59 in 10.0 mi NNW 21.9 mph 32.2 mph 0.00 in   Overcast
11:55 AM 55.0 °F 52.0 °F 89% 29.58 in 10.0 mi NNW 27.6 mph 33.4 mph 0.00 in   Overcast
12:23 PM 53.6 °F 51.8 °F 94% 29.60 in 4.0 mi NNW 21.9 mph 29.9 mph 0.00 in Rain Rain
12:34 PM 53.6 °F 51.8 °F 94% 29.61 in 2.5 mi NNW 20.7 mph 29.9 mph 0.04 in Rain Rain
12:43 PM 53.6 °F 51.8 °F 94% 29.61 in 4.0 mi NNW 24.2 mph 27.6 mph 0.08 in Rain Rain
12:55 PM 54.0 °F 52.0 °F 93% 29.60 in 8.0 mi NNW 21.9 mph 31.1 mph 0.09 in Rain Light Rain
1:09 PM 53.6 °F 51.8 °F 94% 29.62 in 9.0 mi NNW 25.3 mph 32.2 mph 0.01 in Rain Light Rain
1:18 PM 53.6 °F 51.8 °F 94% 29.62 in 10.0 mi NNW 23.0 mph 31.1 mph 0.02 in Rain Light Rain
1:55 PM 55.0 °F 53.1 °F 93% 29.62 in 6.0 mi NW 20.7 mph 31.1 mph 0.05 in Rain Rain
2:03 PM 55.4 °F 53.6 °F 94% 29.63 in 8.0 mi NNW 18.4 mph 32.2 mph 0.01 in Rain Light Rain
2:31 PM 55.4 °F 55.4 °F 100% 29.63 in 10.0 mi NW 27.6 mph 35.7 mph 0.01 in   Overcast
2:55 PM 55.9 °F 54.0 °F 93% 29.62 in 10.0 mi NNW 29.9 mph 38.0 mph 0.01 in Rain Light Rain
3:37 PM 55.4 °F 53.6 °F 94% 29.65 in 8.0 mi NW 25.3 mph 32.2 mph 0.00 in Rain Light Rain
3:55 PM 55.0 °F 54.0 °F 96% 29.64 in 10.0 mi NW 27.6 mph 38.0 mph 0.00 in Rain Light Rain
4:55 PM 55.0 °F 54.0 °F 96% 29.65 in 10.0 mi NW 24.2 mph 35.7 mph 0.00 in   Overcast
5:55 PM 54.0 °F 50.0 °F 86% 29.67 in 10.0 mi NW 25.3 mph 35.7 mph N/A   Overcast
6:55 PM 53.1 °F 48.9 °F 86% 29.68 in 10.0 mi NW 21.9 mph 33.4 mph 0.00 in Rain Light Rain
7:55 PM 52.0 °F 48.0 °F 86% 29.69 in 10.0 mi NW 20.7 mph 35.7 mph 0.00 in Rain Light Rain
8:55 PM 51.1 °F 48.0 °F 89% 29.70 in 7.0 mi NW 23.0 mph 29.9 mph 0.00 in Rain Light Rain
9:03 PM 51.8 °F 48.2 °F 88% 29.71 in 10.0 mi NW 20.7 mph 31.1 mph 0.00 in Rain Light Rain
9:55 PM 50.0 °F 50.0 °F 100% 29.71 in 9.0 mi NNW 23.0 mph 32.2 mph 0.01 in Rain Light Rain
10:55 PM 48.9 °F 48.0 °F 97% 29.73 in 10.0 mi NNW 19.6 mph 31.1 mph 0.00 in   Overcast
11:12 PM 50.0 °F 48.2 °F 94% 29.73 in 10.0 mi NNW 23.0 mph 32.2 mph 0.00 in Rain Light Rain
11:55 PM 48.9 °F 46.0 °F 90% 29.73 in 10.0 mi NNW 24.2 mph 32.2 mph 0.00 in   Overcast